FENGYUN 1C DEB, 38513

Orbit data source: Space-Track

FENGYUN 1C DEB, 38513 is space debris in SSO originally from a launch on Mon, 10 May 1999 UTC launched from the Taiyaun Space Center, China (TSC). Fengyun 1C debris stems from the Chinese weather satellite Fengyun-1C, which was intentionally destroyed by a Chinese anti-satellite missile in 2007. This event dramatically increased the amount of space debris, with thousands of trackable fragments posing hazards to satellites and human spaceflight. The Fengyun 1C debris cloud has become a focal point in discussions about space sustainability and the need for international regulations to prevent the creation of new debris.

Loading next visibility...
Identifier
38513, 1999-025ESY
Orbit
SSO
Country
Flag of CNCN / PRC
Related business
Manufacturer
Unknown
Mission
Spacecraft
Bus & Motor
Unknown
Mass
Unknown
Launch date (UTC)
1999-05-10 (27 years ago)
Launch vehicle
Unknown
Launch site
Taiyaun Space Center, China (TSC)
Object type
Payload
Rocket body
Debris
Shape & HBR
Unknown shape, 0.1 m
Radar Cross Section
Small (<0.1 m²)

Expand to show TLE details & history
Last TLE update: 4 months ago

TLE from 4 months ago
0 FENGYUN 1C DEB
1 38513U 99025ESY 25309.46554958  .00021090  00000-0  18759-2 0  9994
2 38513  97.6286 212.8757 0256223   7.2303 353.2490 14.74191137631089
Epoch: 2025-11-05T11:10Z
TLE epoch observation values (Epoch: 2025-11-05T11:10:23.483Z)
Latitude
-0.00003°
Longitude
0.34003°
Altitude
472.001 km
Speed
7.726 km/s
True Right ascension
14h 11m 30s
True Declination
0° 00' 00"
Sunlit
Object was in daylight at epoch
Visualization orbit readout
Latitude
Unknown
Longitude
Unknown
Altitude
Unknown
Speed
Unknown
Apparent Right ascension
Unknown
Apparent Declination
Unknown
Sunlit
N/A
Visualization observer readout
Local Sidereal Time
02:34:19
Azimuth
Unknown
Elevation
Unknown
Doppler factor
Unknown
Orbital elements
Apogee altitude
824.696 km
Perigee altitude
464.811 km
Semi-major axis
7,022.891 km
Eccentricity
0.02562
Inclination
97.6286°
RAAN
212.8757°
Arg. of periapsis
7.2303°
True anomaly
352.89253°
Mean anomaly
353.249°
Eccentric anomaly
353.07192°
Mean motion
3.68782 °/min
Orbital period
97.62 mins
BSTAR
0.0018759
Loading maneuver chart data...
Computing Atmospheric mass density...

Documentation

Showing up to 5 results
|